Inquirer Daily News

Weather

Get conditions and forecasts for any City, State, ZIP code or Country:  
Northeast Philadelphia, PA
on Monday, February 25, 2013

Monday
Previous Day Next Day
Daily Summary
 ActualAverage (KTTN)Record (KTTN)
Temperature
Mean Temperature °F 36°F  
Max Temperature 44°F 45°F 76°F (1930)
Min Temperature 30°F 27°F 1°F (1894)
Degree Days
Heating Degree Days 28 29  
Month to date heating degree days 782  
Since 1 July heating degree days 3728  
Cooling Degree Days 0 0  
Month to date cooling degree days 0  
Year to date cooling degree days 0  
Moisture
Dew Point 23°F   
Average Humidity 59    
Maximum Humidity 79    
Minimum Humidity 45    
Precipitation
Precipitation 0.00 in 0.09 in 1.08 in (2011)
Month to date precipitation 2.02  
Year to date precipitation 5.18  
Wind
Wind Speed 8 mph   
Max Wind Speed 12 mph   
Max Gust Speed mph   
Visibility 10 miles   
Events     

Key: T is trace of precipitation, MM is missing value
Source: NWS Daily Summary
Time(EST)TemperatureDew PointHumidity Pressure Visibility Wind DirectionWind SpeedGust SpeedPrecipitationEvents Conditions
12:54 AM 32.0°F 19.0°F 59% 30.06 in 10.0 miles NW 10.4 mph - N/A   Clear
1:54 AM 30.9°F 19.0°F 61% 30.07 in 10.0 miles WNW 8.1 mph - N/A   Clear
2:54 AM 30.9°F 19.0°F 61% 30.07 in 10.0 miles NW 8.1 mph - N/A   Clear
3:54 AM 30.0°F 19.0°F 64% 30.08 in 10.0 miles WNW 5.8 mph - N/A   Clear
4:54 AM 30.0°F 19.9°F 66% 30.11 in 10.0 miles NW 5.8 mph - N/A   Clear
5:54 AM 30.0°F 19.9°F 66% 30.12 in 10.0 miles NW 6.9 mph - N/A   Clear
6:54 AM 30.2°F 21.2°F 69% 30.13 in 10.0 miles NW 5.8 mph - N/A   Clear
7:54 AM 33.1°F 21.9°F 64% 30.16 in 10.0 miles NW 8.1 mph - N/A   Clear
8:54 AM 37.0°F 23.0°F 57% 30.16 in 10.0 miles NNW 11.5 mph - N/A   Clear
9:54 AM 39.0°F 25.0°F 57% 30.17 in 10.0 miles North 9.2 mph - N/A   Clear
10:54 AM 41.0°F 25.0°F 53% 30.17 in 10.0 miles NNW 11.5 mph - N/A   Scattered Clouds
11:54 AM 42.1°F 25.0°F 51% 30.19 in 10.0 miles NNE 10.4 mph - N/A   Overcast
12:54 PM 42.1°F 26.1°F 53% 30.19 in 10.0 miles North 10.4 mph - N/A   Overcast
1:54 PM 44.1°F 26.1°F 49% 30.18 in 10.0 miles Variable 4.6 mph - N/A   Overcast
2:54 PM 43.0°F 25.0°F 49% 30.18 in 10.0 miles NNW 10.4 mph - N/A   Mostly Cloudy
3:54 PM 43.0°F 24.1°F 47% 30.18 in 10.0 miles NNW 8.1 mph - N/A   Partly Cloudy
4:54 PM 44.1°F 24.1°F 45% 30.18 in 10.0 miles NE 8.1 mph - N/A   Mostly Cloudy
5:54 PM 42.1°F 24.1°F 49% 30.21 in 10.0 miles North 9.2 mph - N/A   Overcast
6:54 PM 37.9°F 23.0°F 55% 30.23 in 10.0 miles Calm Calm - N/A   Mostly Cloudy
7:54 PM 37.9°F 25.0°F 60% 30.25 in 10.0 miles NNE 5.8 mph - N/A   Overcast
8:54 PM 36.0°F 24.1°F 62% 30.25 in 10.0 miles North 3.5 mph - N/A   Clear
9:54 PM 33.1°F 24.1°F 70% 30.25 in 10.0 miles North 3.5 mph - N/A   Clear
10:54 PM 33.1°F 24.1°F 70% 30.24 in 10.0 miles Calm Calm - N/A   Clear
11:54 PM 30.0°F 24.1°F 79% 30.23 in 10.0 miles SSE 4.6 mph - N/A   Clear
Astronomy
Sunrise:06:39 AM (EST) Moon Rise:05:58 PM (EST)2/25
Sunset:05:47 PM (EST) Moon Set:06:07 AM (EST)2/25
Moon Phase
Feb. 25 Feb. 25 Mar. 04 Mar. 11 Mar. 19

Copyright © 2014 The Weather Underground, Inc.